ES'HAIL 1 (39233 NORAD) Tracking and Keplerian Element Data

This shows tracking and keplerian element data for the satellite.

Feedback or suggestion? Click here.




ElementValue
Catalog39233
NameES'HAIL 1
Epoch Orbit3921
Epoch Day159.94890771
Epoch Year2024
RAAN1.1454
Inclination0.0483
Eccentricity0.0002319
Argument of Perigee67.5227
Mean Anonmoly195.2492
Mean Motion1.0026981
Decay Rate1.43E-06
L11 39233U 13044A 24159.94890771 .00000143 00000+0 00000+0 0 9994
L22 39233 0.0483 1.1454 0002319 67.5227 195.2492 1.00269810 39210



Live tracking and technical data element details for ES'HAIL 1 (NORAD 39233). ES'HAIL 1 can be tracked NOW for your location showing map with azimuth and elevation plus other details from your city location.







IsCatalogInMostPopularTable: catalog: 39233, numindb: 1726
Update: records affected: 1



GetName: 39233 ES'HAIL 1

Hit Count: updated at: Tue, 17 Sep 2024 11:08:15 GMT